SCP
0 0 0 0 0 0 0 0 0 0 0 0 0 0 1 1 1 1 2 3 4 4 3 3 3 2 2 1 1 0 0 1 0 0 0 0 0 1 1 0 0 0 0 0 0 0 0 0 0
0 0 0 0 0 0 0 0 0 0 0 0 0 0 1 1 1 1 3 4 5 4 3 3 3 2 2 1 1 1 1 1 1 1 1 1 1 1 1 0 0 0 0 0 0 0 0 0 0
0 0 0 0 0 0 0 0 0 0 0 0 0 1 1 1 1 2 3 5 5 4 3 3 3 2 2 1 1 1 1 1 1 1 1 1 1 1 1 0 0 0 0 0 0 0 0 0 0
0 0 0 0 0 0 0 0 0 0 0 0 0 1 1 1 1 2 3 4 4 3 3 3 3 2 2 1 1 1 1 1 1 1 1 1 1 1 1 0 0 0 0 0 0 0 0 0 0
0 0 0 0 0 0 0 0 0 0 0 0 1 1 2 2 2 2 3 3 4 3 3 3 3 3 2 2 1 1 1 1 1 1 1 1 1 1 1 0 0 0 0 0 0 0 0 0 0
0 0 0 0 0 0 0 0 0 0 0 0 1 2 2 2 2 2 2 3 3 3 3 3 3 3 2 2 2 1 1 1 1 1 1 1 1 1 1 0 0 0 0 0 0 0 0 0 0
0 0 0 0 0 0 0 0 0 0 0 0 1 2 3 2 2 1 2 3 3 3 3 3 3 2 2 2 2 2 1 1 1 1 1 1 1 1 1 1 1 0 0 0 0 0 0 0 0
0 0 0 0 0 0 0 0 0 0 0 0 1 2 3 2 2 1 2 2 3 3 2 2 2 2 2 2 2 2 2 1 1 1 1 1 1 1 1 1 1 0 0 0 0 0 0 0 0
0 0 0 0 0 0 0 0 0 0 0 0 1 2 3 3 2 1 2 2 3 3 2 2 2 2 2 2 2 1 1 1 1 1 1 1 1 0 0 1 1 1 0 0 0 0 0 0 0
0 0 0 0 0 0 0 0 0 0 0 0 1 2 3 2 2 2 2 2 2 2 2 1 1 1 1 1 1 1 1 1 1 1 1 0 0 0 1 1 1 1 1 0 0 1 1 0 0
0 0 0 0 0 0 0 0 0 0 0 0 1 3 3 2 2 2 2 2 2 2 2 1 1 1 1 1 1 1 1 1 1 1 1 0 0 1 1 1 1 1 1 1 1 1 1 1 0
0 0 0 0 0 0 0 0 0 0 0 0 1 2 3 2 2 2 2 2 3 3 2 2 2 2 2 2 1 1 1 1 1 1 1 1 1 1 1 1 1 1 1 1 1 1 1 1 1
0 0 0 0 0 0 0 0 0 0 0 0 1 2 3 2 2 2 2 3 3 3 3 2 2 3 3 3 2 1 1 1 1 1 1 1 1 1 1 1 1 1 1 1 1 1 1 1 1
0 0 0 0 0 0 0 0 0 0 0 0 0 1 2 2 2 2 3 3 4 5 4 3 3 4 4 4 3 2 1 1 1 2 1 1 1 1 1 2 2 2 2 2 2 2 2 2 2
0 0 0 0 0 0 0 0 0 0 0 0 0 1 1 2 2 3 4 5 5 6 6 4 4 5 5 4 3 2 2 2 2 2 2 2 1 2 2 2 2 2 2 2 3 3 3 3 2
0 0 0 0 0 0 0 0 0 0 0 0 0 1 1 2 3 4 5 6 7 7 7 6 5 6 6 5 4 3 2 2 3 3 3 3 3 3 3 3 3 3 3 3 3 3 4 4 4
0 0 0 0 0 0 0 0 1 1 1 2 2 2 3 5 6 6 7 8 9 9 9 8 7 7 6 5 4 3 3 3 4 5 5 5 4 4 4 4 4 4 4 4 4 4 5 5 6
0 0 0 0 0 0 0 1 3 4 5 5 5 6 8 10 10 10 10 10 11 12 12 10 9 9 7 5 4 4 4 5 6 6 6 6 5 5 4 4 4 5 5 4 4 4 5 6 7
0 0 0 0 0 0 1 2 4 6 7 7 8 10 13 14 15 15 14 13 12 14 13 11 10 9 7 5 5 5 6 7 7 7 7 7 6 5 5 5 5 5 5 5 4 5 5 6 6
0 0 0 0 0 1 2 3 4 5 6 7 8 10 14 17 18 18 17 14 13 12 12 9 8 8 7 6 6 7 8 9 8 7 7 7 6 6 5 5 5 5 5 5 5 5 4 4 5
0 0 0 0 0 1 2 3 3 4 5 6 8 10 14 18 17 15 15 14 12 10 9 8 7 7 6 6 7 8 8 8 7 7 7 7 6 6 6 6 6 6 6 5 5 4 4 4 4
0 0 0 0 0 0 1 1 2 3 5 6 8 10 12 13 13 12 12 13 12 11 9 8 8 7 7 7 7 8 7 7 7 7 7 8 7 7 7 7 7 6 5 5 4 4 3 3 3
0 0 0 0 0 0 0 1 2 3 4 6 7 9 10 9 9 10 12 14 15 13 10 9 9 8 8 8 8 8 7 6 6 7 9 9 8 8 7 6 5 4 4 4 3 3 2 2 2
0 0 0 0 0 0 0 1 2 3 4 5 6 7 7 7 7 8 12 14 15 14 12 10 9 9 9 9 9 8 7 6 6 8 9 8 7 6 4 3 2 2 2 2 2 2 1 1 0
0 0 0 0 0 0 1 1 3 4 5 5 5 5 5 4 5 5 7 10 11 12 12 11 10 9 9 10 9 8 6 6 6 8 7 6 4 2 1 1 0 0 0 1 1 1 1 0 0
0 0 0 0 0 0 1 2 3 5 5 5 4 3 3 3 3 3 3 4 5 6 8 9 8 8 8 8 7 6 6 6 6 5 4 3 1 1 0 0 0 0 0 0 0 0 0 0 0
0 0 0 0 0 0 1 3 3 4 5 5 3 2 2 2 2 2 2 2 1 2 3 4 5 5 4 3 3 3 4 4 4 2 2 1 0 0 0 0 0 0 0 0 0 0 0 0 0
0 0 0 0 0 0 1 2 3 3 4 4 3 2 2 1 1 1 1 1 0 0 1 1 1 1 1 0 0 1 1 2 1 0 0 0 0 0 0 0 0 0 0 0 0 0 0 0 0
0 0 0 0 0 0 1 1 2 3 3 3 2 2 1 1 0 0 0 0 0 0 0 0 0 0 0 0 0 0 0 0 0 0 0 0 0 0 0 0 0 0 0 0 0 0 0 0 0
0 0 0 0 0 0 0 1 2 2 2 2 2 2 1 0 0 0 0 0 0 0 0 0 0 0 0 0 0 0 0 0 0 0 0 0 0 0 0 0 0 0 0 0 0 0 0 0 0
Wind_Speed
14 16 13 10 9 11 14 7 3 5 4 1 5 5 10 13 9 7 6 12 23 21 19 19 18 18 18 17 16 15 14 14 13 12 11 11 11 11 11 11 11 11 11 11 10 10 10 9 9
12 16 12 9 11 13 9 3 5 4 1 2 6 6 12 15 11 10 9 17 23 20 18 17 19 18 18 17 17 16 15 15 13 12 11 11 11 10 10 10 10 10 10 10 10 10 9 8 8
13 15 10 10 15 16 8 5 6 10 3 1 3 5 9 10 10 10 13 19 21 19 17 18 19 19 18 18 17 17 16 15 14 13 12 11 11 10 10 10 10 9 9 9 9 9 8 7 6
10 10 10 12 19 18 10 5 6 13 5 1 2 6 11 8 8 13 16 19 21 19 18 17 18 19 18 18 18 17 16 15 14 13 12 11 11 10 9 9 9 9 8 8 8 7 6 6 5
10 9 13 17 23 18 7 9 6 10 9 2 1 8 11 9 13 17 15 18 20 19 18 17 17 18 18 18 17 17 16 14 13 13 12 11 10 9 9 9 9 8 8 7 7 6 5 4 3
10 11 16 18 22 20 12 10 10 12 10 5 3 9 9 9 13 14 16 16 19 20 18 16 17 18 18 18 17 16 15 14 13 12 12 11 10 9 9 9 8 8 7 7 6 5 4 3 2
13 14 19 22 21 20 14 11 12 12 10 3 0 6 10 10 12 13 15 16 19 20 18 15 15 15 17 17 16 16 14 13 13 12 11 11 10 10 9 9 8 8 7 6 6 5 4 3 2
14 15 23 23 23 21 14 7 9 10 9 2 1 4 10 8 10 13 15 16 17 19 18 15 15 14 14 14 16 16 14 13 13 12 12 11 10 9 10 9 8 8 7 6 5 5 4 4 5
18 18 20 22 21 20 13 5 12 11 12 7 3 11 17 16 14 14 15 15 15 17 16 15 16 15 14 14 14 14 14 12 12 11 11 10 8 9 9 9 11 9 7 7 6 6 6 6 8
17 17 23 21 21 20 14 7 11 10 13 11 4 14 20 19 17 16 16 16 17 18 17 16 16 16 15 13 12 10 10 10 9 8 9 7 6 6 8 12 13 10 9 8 8 9 8 8 6
19 22 19 21 22 21 17 10 9 9 14 13 8 13 17 17 16 15 16 16 17 17 16 17 16 14 13 11 10 7 7 8 8 9 9 6 5 4 6 6 7 7 9 7 8 8 7 7 5
20 20 19 20 20 19 16 12 10 13 15 12 6 8 13 15 15 15 15 16 16 17 17 16 16 13 12 11 10 8 7 7 7 7 8 6 3 3 4 4 6 6 5 5 5 5 7 5 3
19 18 18 18 17 17 15 14 13 13 14 13 8 8 11 13 14 14 14 15 16 15 15 15 14 11 7 8 8 8 6 8 7 6 6 5 4 3 3 2 2 3 3 4 4 3 2 1 2
16 15 16 16 17 16 15 17 17 17 15 15 13 11 11 12 14 15 14 15 16 14 12 12 12 12 8 6 5 5 5 5 6 6 7 6 4 3 1 1 1 1 1 0 1 1 0 0 1
14 15 16 16 17 17 16 19 20 19 17 18 17 14 13 12 13 13 14 15 16 15 11 10 12 12 9 9 7 5 4 5 4 5 6 6 4 2 2 1 1 1 1 0 1 1 1 1 2
13 15 18 19 19 19 18 19 18 19 20 20 18 16 14 11 12 12 13 13 15 16 13 11 13 13 9 7 6 4 3 4 3 4 4 5 4 3 2 1 1 1 1 0 1 0 1 1 1
16 17 20 21 21 19 19 18 16 15 19 18 17 16 14 11 8 9 11 12 13 14 13 11 10 12 11 8 6 4 3 2 3 3 3 4 4 3 2 1 0 0 0 0 1 1 0 1 1
14 16 19 19 16 18 18 14 11 9 10 13 13 11 9 8 6 6 9 10 12 13 12 10 9 10 10 7 5 3 3 3 2 2 3 3 2 1 1 0 0 1 1 1 1 1 0 0 1
17 17 15 12 10 13 13 11 6 3 2 5 7 6 5 5 6 7 8 9 11 12 11 10 9 9 8 6 6 5 4 3 3 3 4 4 3 2 2 1 1 1 1 1 1 1 0 0 1
15 16 12 5 7 8 8 6 2 4 5 5 6 6 8 9 10 10 8 8 9 9 9 9 8 9 8 6 5 4 4 4 4 4 5 5 4 3 1 2 1 1 1 1 1 1 1 0 0
13 14 11 7 6 8 8 8 7 6 8 9 10 11 11 13 12 11 9 8 8 5 5 6 6 7 7 6 5 4 4 3 3 4 4 6 7 6 6 5 4 3 2 1 1 1 1 1 0
12 13 12 10 9 9 12 8 11 10 9 11 13 13 13 12 13 11 11 11 9 7 4 5 5 5 5 6 6 6 5 4 4 5 5 7 8 7 7 6 5 5 3 2 2 3 1 1 0
13 11 10 11 11 10 13 8 9 12 11 11 13 14 14 14 14 13 14 13 13 10 7 6 6 5 4 4 5 6 5 6 6 7 8 7 7 8 8 7 7 7 6 7 7 6 5 4 3
11 10 9 11 11 13 15 10 8 6 10 11 13 13 13 13 12 13 14 15 14 13 10 9 8 8 7 7 6 7 9 9 10 9 8 7 7 8 10 10 10 9 8 8 8 8 9 7 7
11 10 8 10 11 13 14 6 7 9 12 13 13 13 13 13 13 14 15 14 14 14 13 11 12 11 10 11 10 10 11 11 11 9 9 8 7 8 10 10 10 9 9 9 9 9 9 9 8
13 15 12 7 8 10 13 8 10 15 16 15 14 14 14 14 13 14 13 12 13 14 14 15 15 14 14 13 13 12 12 10 9 11 10 10 9 9 9 11 11 11 10 10 9 9 8 8 7
13 15 15 11 12 10 3 9 12 16 17 16 15 14 14 13 13 13 13 13 14 14 15 15 16 16 16 16 16 15 14 14 13 13 12 10 9 9 11 11 11 11 11 10 9 8 8 7 7
13 13 9 9 8 6 4 9 11 18 17 16 15 14 13 13 13 13 12 13 13 13 14 15 16 17 16 15 14 14 15 14 14 13 14 12 11 10 11 10 10 10 10 9 8 6 7 7 6
10 11 10 8 5 4 4 2 4 17 17 17 15 15 13 13 12 12 12 12 13 13 14 14 15 15 15 15 15 15 14 14 14 12 12 11 10 9 9 9 9 9 8 7 7 7 7 6 6
8 9 9 8 6 5 2 2 7 16 17 17 16 15 14 13 12 12 12 12 13 13 13 14 13 14 14 14 14 14 13 13 12 11 10 9 9 8 8 8 8 8 7 6 6 6 6 5 5
Wind_Direction
296 284 275 273 259 249 256 264 233 196 229 178 91 78 85 73 70 110 169 134 119 124 130 132 135 140 141 141 139 138 137 135 133 130 125 119 115 110 107 105 104 103 103 102 102 100 96 92 88
292 289 283 259 260 257 265 284 296 278 218 147 128 113 93 86 97 123 135 121 122 128 136 134 136 140 142 142 141 141 142 141 139 134 130 125 120 115 113 110 108 107 107 107 106 103 101 97 93
275 270 272 260 251 258 267 306 310 291 226 196 104 102 83 90 96 114 122 127 126 133 132 130 138 140 142 143 144 144 146 146 143 139 135 130 125 120 118 116 114 112 112 111 108 106 105 102 98
268 251 243 253 254 255 245 208 279 294 287 122 83 89 82 76 101 118 130 134 132 133 129 134 137 140 141 144 146 148 149 149 146 143 139 134 129 125 124 122 120 118 117 115 112 109 109 109 107
244 253 248 248 254 259 230 178 196 271 288 283 112 101 90 82 98 118 140 136 134 133 130 135 136 138 141 143 146 148 150 150 148 145 141 136 132 130 129 128 127 126 124 121 118 116 113 110 111
242 235 245 248 252 253 232 199 208 235 246 241 199 112 100 111 114 133 140 137 134 131 131 133 135 138 140 143 146 148 150 150 148 146 142 139 135 135 135 135 135 135 133 131 131 131 129 129 141
243 242 244 249 255 257 246 216 214 236 245 248 35 108 117 124 130 142 138 137 132 131 134 141 140 140 141 143 145 147 149 150 148 146 144 143 143 143 144 142 142 143 143 145 150 154 157 167 195
241 251 252 251 254 257 257 252 260 261 264 233 202 111 118 124 148 145 142 138 136 135 140 148 148 144 146 146 147 148 150 150 150 149 150 151 151 154 154 155 151 153 157 163 170 178 189 203 218
240 244 248 249 254 259 254 233 273 274 272 262 167 120 133 156 163 155 148 145 143 140 145 155 153 153 155 153 149 151 153 153 153 156 159 162 176 176 175 173 153 164 173 181 190 202 212 219 224
234 240 246 254 263 269 267 210 228 265 266 255 189 131 141 157 163 164 159 157 152 148 153 161 159 161 164 155 149 159 166 163 177 172 173 194 206 191 179 150 161 173 185 195 206 218 226 232 227
233 240 253 259 263 269 273 252 210 227 249 246 220 152 150 158 166 173 167 165 159 155 162 164 162 166 165 149 156 167 174 166 196 180 179 206 217 189 148 154 165 182 195 205 204 217 230 228 228
239 243 251 260 267 273 271 262 238 224 238 240 220 154 157 170 178 181 174 167 161 162 169 165 162 167 165 154 162 168 176 167 190 174 184 198 215 221 171 175 174 187 197 205 193 219 223 236 244
245 243 249 259 267 273 279 269 263 255 254 260 247 199 181 184 186 186 178 167 163 167 170 163 162 159 156 147 164 172 175 169 183 169 187 198 195 216 216 180 171 205 186 182 203 226 223 242 299
259 256 250 252 257 259 262 265 262 256 258 257 252 235 210 200 193 187 179 169 166 165 171 161 157 153 151 148 161 160 169 161 176 162 178 196 209 196 200 181 157 290 340 104 213 245 122 297 318
267 270 267 255 249 245 247 250 248 251 250 247 243 237 226 216 201 189 177 169 165 159 164 156 154 155 156 160 174 168 176 167 163 163 171 180 207 183 164 199 163 211 255 288 37 6 11 310 285
256 251 254 249 239 232 231 244 241 232 231 235 232 229 220 216 211 190 175 164 160 157 158 160 166 159 160 162 174 169 182 160 156 151 161 173 187 171 161 205 217 199 190 147 126 7 307 313 310
246 242 245 244 226 217 217 238 245 230 218 221 223 222 211 199 204 182 166 160 151 148 152 158 160 158 166 168 171 176 162 145 138 138 148 167 178 176 170 205 190 95 110 1 268 164 228 302 301
245 241 239 240 212 204 208 224 236 231 211 206 208 208 194 176 165 151 146 152 143 143 148 156 157 155 162 166 166 175 168 143 122 111 114 124 132 132 138 166 34 4 26 8 332 8 50 345 328
273 285 265 238 185 192 203 213 229 209 191 171 174 170 130 93 106 109 115 134 132 137 146 157 166 161 162 167 173 176 175 150 117 95 83 89 92 95 104 119 70 47 25 9 350 299 224 342 342
263 272 271 235 166 191 187 185 153 77 85 93 105 101 89 85 66 67 85 104 114 127 145 161 168 164 169 167 167 164 154 136 118 95 78 73 72 62 81 84 71 67 54 4 334 281 235 243 327
255 262 263 249 204 197 183 178 147 113 90 79 73 71 64 68 64 54 57 69 88 103 139 159 160 158 165 161 153 145 135 129 118 104 81 62 61 54 43 43 43 44 51 48 9 324 254 228 129
248 250 256 255 231 203 204 190 162 147 114 85 69 66 62 55 56 50 51 49 56 67 84 100 117 134 148 156 159 162 161 149 118 101 86 72 64 61 55 50 49 49 42 36 45 48 21 58 142
250 244 243 245 243 240 219 205 175 161 136 98 77 70 64 55 48 42 42 44 40 41 63 74 82 90 110 135 148 150 132 118 108 101 93 80 67 59 54 54 54 50 45 42 44 49 45 47 46
252 253 235 241 241 240 238 220 168 164 134 109 88 78 71 66 57 46 43 43 40 37 47 63 71 69 78 87 94 111 119 117 112 105 97 83 69 60 54 55 57 55 52 49 49 53 54 52 50
237 242 224 218 224 234 228 209 109 101 108 109 99 84 73 66 59 51 45 42 41 41 44 55 64 62 68 76 76 81 91 95 96 96 89 82 74 64 57 59 58 55 53 53 53 53 51 49 52
222 237 239 234 231 231 211 145 122 112 109 107 101 91 81 71 63 59 56 51 49 47 48 54 61 59 61 68 72 74 78 81 80 81 84 80 75 70 64 63 63 60 57 57 56 54 51 48 49
218 232 249 272 285 281 106 108 125 127 123 117 106 94 85 77 70 66 61 58 57 55 55 59 65 65 63 67 71 71 74 79 81 79 77 76 76 77 69 65 63 59 55 54 57 55 50 47 43
247 236 239 243 266 271 200 179 166 154 138 124 113 101 91 84 77 70 66 65 64 65 65 66 68 71 71 71 73 77 76 78 81 81 81 80 78 77 74 70 67 63 58 54 54 54 48 51 40
236 245 250 258 228 248 222 257 168 151 135 125 115 107 101 93 86 81 77 73 72 71 70 71 72 74 74 74 76 78 79 79 80 80 81 82 80 78 78 77 75 70 61 54 52 52 48 46 40
231 254 257 266 282 271 178 80 99 122 121 118 114 109 103 97 91 86 83 81 77 75 74 74 76 77 78 80 82 81 82 83 82 82 82 81 80 78 77 75 74 73 70 63 58 52 46 40 38